Change the Weather History Date:

Saturday, November 1, 2014

  Actual Average Record
Temperature  
Mean Temperature 55 °F -  
Max Temperature 71 °F 53 °F 73 °F (2008)
Min Temperature 38 °F 29 °F 17 °F (2002)
Degree Days  
Heating Degree Days 10    
Month to date heating degree days 10  
Growing Degree Days 4 (Base 50)    
Moisture  
Dew Point 31 °F    
Average Humidity 48    
Maximum Humidity 70    
Minimum Humidity 25    
Precipitation  
Precipitation 0.00 in - - ()
Month to date precipitation 0.00  
Year to date precipitation 15.09  
Sea Level Pressure  
Sea Level Pressure 29.81 in    
Wind  
Wind Speed 11 mph (SSW)    
Max Wind Speed 24 mph    
Max Gust Speed 28 mph    
Visibility 10 miles    
Events      
Averages and records for this station are not official NWS values.
T = Trace of Precipitation, MM = Missing Value Source: NWS Daily Summary

Daily Weather History Graph

Daily Weather History Graph

Search for Another Location

Airport or City:

Trip Planner

Search our weather history database for the weather conditions in past years. The results will help you decide how hot, cold, wet, or windy it might be!

Date:

Astronomy

Nov. 01, 2014 Rise Set
Actual Time 7:27 AM MDT 5:57 PM MDT
Civil Twilight 6:59 AM MDT 6:25 PM MDT
Nautical Twilight 6:28 AM MDT 6:57 PM MDT
Astronomical Twilight 5:56 AM MDT 7:28 PM MDT
Moon 2:52 PM MDT (11/1) 1:27 AM MDT (11/1)
Length of Visible Light 11h 25m
Length of Day
10h 29m
Waxing Gibbous, 68% of the Moon is Illuminated
Nov 1
Waxing Gibbous
Nov 6
Full
Nov 14
Last Quarter
Nov 22
New
Nov 29
First Quarter

Hourly Weather History & Observations

Time (MDT) Temp. Windchill Dew Point Humidity Pressure Visibility Wind Dir Wind Speed Gust Speed Precip Events Conditions
12:53 AM 37.0 °F 32.4 °F 28.0 °F 70% 29.99 in 10.0 mi SSE 5.8 mph - N/A   Scattered Clouds
1:53 AM 51.1 °F - 26.1 °F 38% 29.92 in 10.0 mi SW 13.8 mph - N/A   Partly Cloudy
2:53 AM 44.1 °F 40.8 °F 26.1 °F 49% 29.94 in 10.0 mi ESE 5.8 mph - N/A   Partly Cloudy
3:53 AM 53.1 °F - 26.1 °F 35% 29.88 in 10.0 mi SW 10.4 mph - N/A   Scattered Clouds
4:53 AM 55.0 °F - 26.1 °F 33% 29.89 in 10.0 mi SSW 10.4 mph - N/A   Scattered Clouds
5:53 AM 55.9 °F - 27.0 °F 33% 29.89 in 10.0 mi SSW 16.1 mph 25.3 mph N/A   Scattered Clouds
6:53 AM 55.9 °F - 28.0 °F 34% 29.89 in 10.0 mi SSW 18.4 mph - N/A   Mostly Cloudy
7:53 AM 55.0 °F - 30.0 °F 38% 29.91 in 10.0 mi SW 12.7 mph - N/A   Mostly Cloudy
8:53 AM 59.0 °F - 30.9 °F 35% 29.89 in 10.0 mi South 13.8 mph - N/A   Mostly Cloudy
9:53 AM 64.0 °F - 33.1 °F 31% 29.87 in 10.0 mi SW 9.2 mph - N/A   Mostly Cloudy
10:53 AM 66.0 °F - 33.1 °F 29% 29.87 in 10.0 mi SW 16.1 mph - N/A   Mostly Cloudy
11:53 AM 64.9 °F - 33.1 °F 31% 29.85 in 10.0 mi SW 21.9 mph 26.5 mph N/A   Mostly Cloudy
12:53 PM 66.0 °F - 35.1 °F 32% 29.83 in 10.0 mi SSW 13.8 mph 23.0 mph N/A   Mostly Cloudy
1:53 PM 64.9 °F - 35.1 °F 33% 29.76 in 10.0 mi SSW 20.7 mph 25.3 mph N/A   Mostly Cloudy
2:53 PM 64.9 °F - 36.0 °F 34% 29.74 in 10.0 mi South 16.1 mph 24.2 mph N/A   Mostly Cloudy
3:53 PM 70.0 °F - 33.1 °F 26% 29.68 in 10.0 mi SW 17.3 mph - N/A   Mostly Cloudy
4:53 PM 69.1 °F - 32.0 °F 25% 29.67 in 10.0 mi South 9.2 mph - N/A   Partly Cloudy
5:53 PM 63.0 °F - 28.9 °F 28% 29.68 in 10.0 mi South 10.4 mph - N/A   Partly Cloudy
6:53 PM 60.1 °F - 30.0 °F 32% 29.71 in 10.0 mi SSW 6.9 mph - N/A   Mostly Cloudy
7:53 PM 52.0 °F - 37.0 °F 57% 29.75 in 10.0 mi South 3.5 mph - N/A   Overcast
8:53 PM 57.9 °F - 33.1 °F 39% 29.71 in 10.0 mi South 3.5 mph - N/A   Mostly Cloudy
9:53 PM 59.0 °F - 30.9 °F 35% 29.68 in 10.0 mi SSW 17.3 mph 25.3 mph N/A   Overcast
10:53 PM 61.0 °F - 30.9 °F 32% 29.69 in 10.0 mi SSE 11.5 mph - N/A   Overcast
11:53 PM 55.0 °F - 32.0 °F 42% 29.70 in 10.0 mi South 8.1 mph - N/A   Mostly Cloudy